STARLINK-11663

Satellite information

Favourite Embed

Satellite Type and Status

PAYLOADIN ORBIT

Key statistics

Satellite STARLINK-11663 at a glance.

Uptime

229

Days in orbit

Revolutions

≈ 15.7

Per day

Orbit

LEO

Low Earth Orbit

Inclination

43.0

Latest

Satellite identification and parameters

Extended collection of information and parameters for STARLINK-11663.

Object identification

Identified? True

Debris? False

Object name: STARLINK-11663

International designator: 2025-085E

Object number (NORAD): 63668

Object ID (CCSDS): 63668

Country: UNITED STATES OF AMERICA (US)

Current information (Y/N): Y

RCS size: LARGE

Orbital parameters

Period: 91.66 minutes

Inclination: 42.9992 deg

SMA: 6734.132 km

Apoapsis: 357.388 km

Periapsis: 354.607 km

RAAN: 85.5135 deg

Eccentricy: 0.00020646

Argument of periapsis: 249.6794 deg

Mean anomaly: 110.3852 deg

Mean motion: 15.71014902 rev/day

Mean motion (dot): 0.00408974 rev/day2

B* drag term: 0.0030143595 1/REarth

Two-line elements (TLE)

Creation date: Dec. 12, 2025, 10:14 a.m.

Reference frame: TEME

Reference center: EARTH

Epoch: Dec. 12, 2025, 7:07 a.m. UTC

TLE line 0: 0 STARLINK-11663

TLE line 1: 1 63668U 25085E 25346.29696443 .00408974 00000-0 30144-2 0 9998

TLE line 2: 2 63668 42.9992 85.5135 0002065 249.6794 110.3852 15.71014902 36501

Live tracking on map

Real-time ground track for satellite STARLINK-11663.

In-orbit conjunctions

There are no conjunctions computed for STARLINK-11663, at the moment. Check back to stay up to date, as we update our databases every day.

Go to all conjunctions

Associated space launch

A batch of 23 satellites for the Starlink mega-constellation - SpaceX's project for space-based Internet communication system.

STARLINK-11663 was lifted into orbit during the mission ‘Falcon 9 Block 5 | Starlink Group 12-23’, on board a Falcon 9 space rocket.

The launch took place on April 28, 2025, 2:09 a.m. from Space Launch Complex 40.

For more information about the launch, click the button.

Launch to space Falcon 9 Block 5 | Starlink Group 12-23
Falcon 9 Block 5 | Starlink Group 12-23

Agency: SpaceX

Status: Launch Successful

Launch date: April 28, 2025, 2:09 a.m. UTC

Rocket: Falcon 9

Launch pad: Space Launch Complex 40

Location: Cape Canaveral SFS, FL, USA

...

Latest news about this satellite

News about space launch
Live coverage: SpaceX to launch 23 Starlink satellites on Falcon 9 rocket from Cape Canaveral

The Starlink 12-23 mission includes 13 Direct to Cell Starlink satellites. Liftoff from pad 40 at Cape Canaveral Space Force Station is targeting Sunday, April 27, at 10:58 p.m. EDT (0258 UTC).


Newsletter sign-up

Weekly statistics, charts and insights to help you stay on top of the space industry.